Wind_Speed
53 55 56 59 61 64 63 60 56 52 50 49 47 47 45 43 40 38 35 32 30 27 25 23 21 19 17 16 14 13 12 11 9 8 8 7 7 6 5 5 4 4 4 4 4 4 3 3 2
53 55 57 60 64 65 62 58 56 53 51 50 50 48 46 44 42 39 36 33 31 29 26 24 22 20 19 17 16 14 13 12 11 9 9 8 8 7 6 6 5 5 5 5 4 4 4 3 3
51 55 58 61 64 64 59 56 54 54 53 53 52 50 48 45 43 40 37 35 32 30 28 26 24 22 20 19 17 16 14 13 12 11 10 9 8 8 7 6 6 6 6 6 5 4 4 4 4
50 55 58 61 63 60 56 54 54 55 55 55 54 52 50 47 44 42 39 36 34 32 29 27 25 23 21 20 19 17 15 14 13 12 11 10 9 9 8 7 7 7 7 6 6 5 5 5 5
49 53 58 60 60 57 56 55 56 57 56 55 55 53 51 48 46 43 40 37 35 33 31 29 27 25 23 21 20 19 17 15 14 13 13 12 11 10 9 9 8 8 8 7 7 6 6 6 6
48 52 57 58 56 54 56 57 57 57 57 55 55 54 52 50 47 44 42 39 36 35 33 31 29 26 25 23 21 20 18 17 16 14 14 13 12 12 11 10 9 9 9 8 8 7 7 7 7
46 51 54 55 54 54 55 57 57 57 56 56 54 54 52 51 48 45 43 41 38 36 34 32 30 27 26 24 23 21 20 18 17 16 15 14 13 13 12 11 11 10 10 9 9 8 8 8 8
43 48 50 53 52 52 53 56 56 57 55 55 55 54 53 51 49 47 45 42 40 38 36 34 31 29 27 25 24 23 21 20 18 17 16 15 15 14 13 13 12 12 11 11 10 10 10 9 10
40 45 46 49 51 51 52 55 56 57 56 55 55 54 54 52 49 48 46 44 41 39 37 35 32 30 28 26 25 23 22 21 19 18 17 16 16 15 15 14 14 13 13 12 12 12 11 11 11
37 41 41 45 49 50 51 54 55 57 56 55 56 55 54 53 50 48 46 44 42 40 38 36 34 31 29 27 26 24 23 22 21 20 19 18 17 16 16 16 15 15 14 14 14 13 13 13 13
35 37 40 44 47 47 50 53 54 56 57 54 55 55 54 52 50 49 46 43 42 41 39 38 36 33 30 28 26 25 24 23 21 21 20 19 18 18 17 17 17 16 16 16 16 15 15 15 15
34 35 39 40 44 45 47 51 53 55 56 54 54 56 55 52 49 46 45 45 43 42 40 39 37 34 31 29 27 26 25 24 23 22 21 20 20 19 18 18 18 18 18 18 18 17 17 17 17
33 34 35 38 41 44 45 48 52 53 54 55 55 56 55 52 50 47 46 45 46 43 42 40 37 34 32 30 28 27 26 25 24 23 22 22 21 21 20 20 20 20 20 19 19 19 19 19 19
32 34 33 36 39 42 45 44 48 52 53 54 56 57 56 55 52 50 48 45 46 45 42 41 38 36 34 31 30 28 28 27 25 24 24 23 23 22 22 21 21 21 21 21 21 21 21 21 21
31 34 33 35 38 39 43 46 46 51 53 54 57 56 56 56 55 52 50 48 45 45 43 42 41 39 36 34 32 30 29 28 27 26 25 24 24 24 23 23 23 22 23 23 23 23 23 23 24
29 31 32 34 36 37 40 44 45 50 52 53 56 57 57 56 56 54 51 49 47 45 44 42 41 41 39 37 35 33 31 30 29 28 27 26 25 25 25 24 24 24 24 24 25 25 25 25 26
27 28 29 31 34 36 39 42 45 48 51 53 56 57 57 56 55 55 53 50 48 46 45 42 43 43 41 40 38 35 34 33 31 30 29 28 28 27 27 26 26 26 26 27 27 27 27 28 28
25 26 27 29 31 34 38 41 44 47 49 52 55 56 56 56 53 53 52 50 48 47 46 44 42 44 43 42 40 39 37 35 34 33 32 30 29 29 29 28 28 28 28 29 29 29 30 30 31
22 26 26 25 29 32 36 40 43 46 49 51 54 56 56 56 54 53 52 51 50 49 48 48 45 44 43 42 41 40 38 37 36 36 34 33 32 31 31 30 30 30 30 30 31 31 32 33 33
18 23 24 23 26 30 34 37 40 44 47 50 52 54 55 56 54 52 51 53 52 50 49 48 49 46 44 43 42 41 40 39 39 38 37 36 35 34 33 32 32 32 32 33 33 34 34 34 35
17 20 22 23 26 28 30 34 38 42 45 48 50 53 53 53 53 53 52 51 51 51 51 50 49 47 44 44 45 44 42 41 40 40 38 38 37 35 35 35 35 35 34 35 36 36 36 36 37
16 17 19 22 25 27 29 30 35 39 42 46 48 51 53 52 52 53 52 52 51 49 50 50 49 49 46 45 46 45 44 42 41 41 40 41 40 39 37 37 37 36 36 36 37 38 38 37 37
14 16 17 17 20 23 26 28 31 37 38 42 46 49 52 51 52 53 52 53 53 50 50 49 49 48 48 48 47 45 45 44 43 42 41 41 40 40 40 40 39 38 38 37 38 38 38 39 39
11 12 13 15 17 19 22 26 29 34 37 39 43 46 49 51 51 52 52 53 53 52 51 49 49 49 48 48 46 45 46 45 45 44 44 44 43 42 42 40 39 39 38 38 38 39 40 40 41
9 10 11 12 15 17 19 23 25 30 36 39 41 44 47 50 52 51 51 52 52 51 51 50 50 50 49 48 47 46 46 46 46 46 46 46 45 44 44 43 41 40 40 40 41 41 42 42 43
6 8 9 11 12 14 18 21 23 26 31 36 39 41 45 48 51 51 50 51 51 50 50 51 49 49 50 49 48 48 47 47 46 46 46 46 46 45 45 44 44 43 44 44 43 44 44 45 45
5 6 7 9 10 11 15 18 20 23 27 31 35 38 42 46 48 48 50 50 50 49 48 48 48 48 48 48 48 48 48 47 45 45 45 46 46 46 45 45 45 45 45 45 46 47 47 47 46
6 6 7 7 9 11 13 14 17 21 23 28 31 34 37 41 44 45 46 48 48 48 47 47 48 47 47 48 48 49 48 46 45 45 45 45 45 45 45 45 44 44 45 45 45 45 46 45 45
7 7 7 8 9 10 11 13 15 17 20 24 27 30 33 38 42 44 44 45 47 48 48 48 47 47 48 48 48 48 48 47 46 45 44 44 45 47 47 46 46 46 44 44 46 47 46 46 46
7 8 8 9 9 11 12 13 15 16 18 21 24 27 30 34 38 41 42 43 45 46 48 48 48 48 47 48 47 47 48 48 46 45 44 44 45 46 46 46 46 47 47 47 47 47 47 46 46
Wind_Direction
231 228 225 225 224 225 226 224 222 220 219 218 218 219 220 221 221 221 220 219 220 221 221 220 219 220 220 221 222 221 219 218 218 221 224 229 232 236 245 257 274 286 292 298 305 309 310 312 312
230 226 224 224 224 226 225 223 220 220 219 218 217 218 218 219 219 219 218 218 219 220 220 220 221 221 221 221 223 222 221 221 221 222 225 228 232 235 243 255 267 278 284 291 296 298 299 300 295
229 225 223 225 225 225 224 222 219 218 218 216 215 215 216 217 218 217 216 216 217 218 219 219 220 221 221 222 223 223 222 223 223 224 226 228 230 234 243 251 262 271 277 282 284 287 290 288 284
228 224 223 225 226 224 220 220 220 218 217 216 214 213 214 215 216 216 216 216 216 217 218 218 219 221 221 222 222 223 223 224 224 225 227 228 230 236 244 249 259 267 272 275 277 281 284 282 277
227 225 223 224 225 222 218 217 218 217 216 216 215 213 212 212 214 215 214 214 215 215 216 217 218 220 222 222 222 223 223 224 225 226 228 230 232 237 242 247 256 264 267 270 273 275 277 275 272
226 225 224 223 222 219 217 216 217 216 215 214 215 213 210 210 212 212 213 213 214 214 215 216 218 220 221 222 223 224 224 224 226 228 230 233 235 238 241 247 254 261 265 268 269 270 273 274 272
224 225 225 222 219 216 215 215 215 215 214 212 213 213 209 208 209 210 211 212 212 214 214 215 216 219 221 223 224 225 225 225 227 230 233 234 236 239 242 246 252 258 262 266 266 267 270 272 272
223 223 223 220 217 214 213 214 214 214 213 212 212 212 210 207 208 209 210 212 212 213 214 214 216 219 220 222 223 225 225 227 229 231 234 235 237 240 244 247 251 256 260 264 266 266 267 270 272
223 220 218 216 215 212 211 212 213 213 212 212 211 210 210 208 207 209 210 211 212 214 214 214 217 218 219 221 224 225 226 228 230 232 235 237 239 241 245 248 251 256 259 262 265 266 268 270 272
219 218 214 213 214 212 211 211 211 212 211 211 210 209 210 209 208 209 209 209 211 214 214 215 218 218 219 221 224 225 226 228 231 233 235 237 239 242 245 248 252 256 258 261 264 265 268 270 272
217 215 212 212 213 213 212 210 210 211 210 210 210 210 210 209 209 210 210 210 211 212 213 215 217 218 219 222 224 225 226 229 231 233 236 237 239 242 246 249 252 256 259 261 263 264 267 270 272
216 214 212 211 210 211 210 210 209 210 209 209 210 210 210 209 210 209 209 210 211 212 213 214 215 217 219 221 223 225 227 230 231 233 236 238 241 243 247 250 252 255 258 260 262 264 266 268 271
213 212 214 212 210 211 209 210 211 211 209 210 210 210 211 211 211 211 210 212 214 213 212 212 214 215 218 220 223 226 229 231 233 235 237 240 242 245 248 251 254 256 258 260 262 264 267 269 272
214 211 212 211 212 211 211 209 210 208 210 211 211 212 212 211 212 213 213 215 215 216 215 216 215 215 217 219 223 226 230 232 234 236 238 241 244 246 249 251 254 256 258 261 263 265 268 270 273
214 212 211 210 211 211 212 211 210 209 210 211 212 212 212 212 213 214 215 216 216 216 217 218 217 217 219 220 223 226 229 232 233 236 238 241 243 245 248 252 254 257 260 262 264 267 269 271 274
215 212 211 210 213 215 214 211 209 209 210 211 213 214 213 213 215 215 216 217 216 216 217 218 218 218 219 221 223 226 229 231 233 235 238 241 243 246 249 252 255 258 260 263 265 267 270 272 275
215 213 211 210 214 218 216 211 210 211 210 210 212 214 214 214 216 216 217 219 219 219 219 220 220 220 221 222 224 226 229 232 234 236 239 242 244 247 250 253 256 259 261 264 266 268 270 273 275
219 220 216 213 215 217 217 216 214 213 212 211 212 213 215 216 216 218 219 220 221 221 221 220 222 221 222 223 225 228 230 233 236 238 240 243 245 248 251 254 257 259 261 264 266 268 271 273 276
223 223 221 219 216 217 217 218 217 215 214 213 214 214 215 218 219 220 221 222 222 223 223 223 221 224 225 226 226 229 233 235 238 239 240 242 244 248 251 254 257 259 261 264 267 270 273 275 277
221 222 223 223 219 217 218 219 217 216 217 216 216 215 216 218 221 222 223 224 223 224 226 226 226 227 230 230 230 231 234 237 238 239 241 243 246 248 250 254 257 260 263 265 268 270 272 275 277
225 225 223 225 223 221 221 222 220 219 218 218 217 217 217 217 220 222 224 224 226 226 226 227 229 229 230 232 233 234 236 238 240 241 243 245 246 248 252 255 258 262 264 266 268 270 272 275 276
227 227 230 231 227 226 226 223 219 221 221 220 219 219 220 219 220 222 225 227 228 228 230 230 231 232 233 234 235 237 238 240 242 243 245 247 248 249 252 256 259 262 264 267 269 270 272 274 276
228 233 238 237 233 230 229 227 221 222 223 223 222 222 222 221 221 222 225 228 229 231 232 232 233 234 234 236 237 239 239 241 243 244 245 247 248 251 254 258 260 261 263 266 268 271 274 275 276
228 235 238 240 237 237 234 233 228 226 226 226 225 225 225 224 224 225 227 228 230 232 233 236 237 237 237 238 238 240 242 244 245 246 247 248 251 254 257 258 259 261 265 267 269 273 275 276 277
224 233 240 243 241 242 240 242 238 232 229 229 229 227 227 227 228 227 228 230 232 233 234 236 238 238 239 240 242 242 243 246 246 247 249 251 253 255 257 258 261 263 265 268 271 272 274 276 277
229 236 245 247 247 246 244 248 244 238 234 233 233 232 230 229 230 229 230 231 233 234 234 235 237 238 240 242 243 245 246 247 249 250 251 252 253 256 258 260 262 264 267 270 272 272 274 276 278
249 245 248 251 251 251 250 250 247 242 238 235 235 237 235 233 231 231 231 232 233 234 234 234 236 238 240 242 244 245 246 248 249 250 251 252 254 256 259 262 265 265 267 270 271 273 274 276 278
270 264 263 258 257 254 254 249 247 243 241 238 238 239 238 235 233 232 233 233 234 235 236 235 236 237 240 242 244 246 247 249 250 251 253 254 254 256 259 262 264 265 267 270 271 272 274 276 279
279 276 275 273 267 262 257 250 242 244 245 242 240 240 239 235 233 232 234 235 236 237 238 239 239 239 240 242 244 246 248 249 250 252 254 255 257 258 260 262 263 265 267 271 273 275 277 278 280
288 278 278 279 280 275 265 255 247 245 246 244 243 243 240 237 235 234 234 235 236 238 239 241 242 241 241 243 244 246 248 250 252 254 255 257 259 260 261 262 265 268 270 272 274 275 277 279 280
Height
5728 5734 5740 5745 5749 5752 5760 5774 5785 5795 5802 5809 5814 5818 5824 5830 5836 5844 5847 5851 5854 5858 5861 5863 5866 5868 5870 5872 5874 5875 5876 5878 5879 5880 5881 5882 5883 5884 5885 5886 5886 5886 5887 5887 5887 5887 5887 5887 5887
5716 5723 5729 5732 5735 5741 5753 5767 5778 5789 5796 5801 5806 5811 5817 5823 5830 5836 5841 5846 5850 5854 5857 5860 5863 5865 5867 5870 5871 5873 5875 5876 5877 5878 5880 5881 5882 5883 5884 5885 5885 5886 5886 5886 5886 5887 5887 5887 5887
5706 5712 5718 5720 5723 5733 5750 5762 5773 5781 5787 5792 5798 5804 5811 5818 5824 5830 5836 5841 5846 5850 5853 5857 5860 5862 5865 5867 5869 5871 5872 5874 5875 5877 5878 5879 5881 5882 5883 5883 5884 5885 5885 5885 5885 5886 5886 5886 5886
5695 5700 5705 5710 5716 5730 5745 5755 5764 5771 5776 5783 5790 5797 5805 5813 5819 5825 5830 5836 5841 5845 5849 5853 5856 5859 5862 5864 5866 5868 5870 5872 5873 5875 5876 5878 5879 5880 5881 5882 5883 5883 5884 5884 5885 5885 5885 5885 5885
5684 5689 5693 5698 5710 5723 5735 5744 5752 5759 5766 5774 5782 5790 5798 5806 5812 5819 5825 5830 5836 5840 5845 5849 5853 5856 5859 5861 5864 5866 5868 5870 5871 5873 5874 5876 5877 5878 5880 5881 5881 5882 5882 5883 5883 5884 5884 5884 5884
5674 5678 5683 5691 5703 5716 5725 5734 5742 5749 5757 5766 5775 5784 5791 5799 5806 5813 5819 5825 5831 5836 5840 5845 5849 5852 5855 5858 5861 5863 5865 5867 5869 5871 5872 5874 5875 5876 5878 5879 5880 5880 5881 5881 5882 5882 5883 5883 5883
5665 5670 5676 5686 5696 5706 5716 5724 5732 5741 5750 5759 5768 5776 5785 5793 5800 5807 5813 5819 5825 5830 5835 5840 5844 5848 5851 5855 5857 5860 5862 5864 5866 5868 5870 5871 5873 5874 5876 5877 5878 5879 5879 5880 5880 5881 5881 5881 5881
5657 5663 5669 5678 5688 5698 5707 5714 5723 5733 5743 5752 5760 5769 5778 5787 5794 5801 5807 5813 5819 5825 5831 5835 5840 5844 5847 5851 5854 5856 5859 5861 5863 5865 5867 5869 5870 5872 5873 5875 5876 5876 5877 5878 5878 5879 5879 5879 5880
5650 5656 5662 5673 5682 5691 5699 5707 5716 5725 5735 5744 5753 5763 5773 5780 5787 5794 5801 5807 5814 5820 5825 5831 5835 5839 5843 5847 5850 5853 5855 5858 5860 5862 5864 5866 5867 5869 5871 5872 5873 5874 5875 5876 5876 5877 5877 5877 5878
5644 5651 5659 5668 5676 5684 5691 5699 5709 5718 5727 5737 5747 5756 5765 5773 5781 5788 5795 5802 5809 5815 5821 5826 5830 5835 5839 5842 5846 5849 5852 5854 5857 5859 5861 5863 5864 5866 5868 5869 5870 5871 5872 5873 5874 5874 5875 5875 5875
5640 5647 5655 5662 5670 5677 5685 5693 5702 5711 5721 5732 5741 5750 5758 5767 5774 5782 5789 5796 5803 5809 5815 5820 5825 5830 5834 5838 5842 5845 5848 5850 5853 5855 5857 5859 5861 5863 5864 5866 5867 5868 5869 5870 5871 5871 5872 5872 5872
5637 5643 5650 5657 5664 5671 5679 5688 5697 5706 5717 5727 5735 5743 5752 5760 5768 5776 5783 5790 5796 5802 5808 5814 5819 5824 5829 5833 5837 5840 5843 5846 5849 5851 5853 5855 5857 5859 5861 5862 5864 5865 5866 5867 5867 5868 5868 5869 5869
5633 5640 5646 5652 5659 5666 5674 5683 5692 5702 5712 5720 5728 5737 5746 5754 5762 5769 5776 5783 5790 5796 5803 5808 5814 5819 5824 5828 5832 5835 5839 5842 5844 5847 5849 5851 5853 5855 5857 5858 5860 5861 5862 5863 5863 5864 5865 5865 5865
5631 5637 5642 5649 5655 5662 5669 5678 5686 5697 5705 5714 5722 5731 5740 5748 5756 5763 5770 5776 5784 5790 5797 5803 5808 5813 5818 5822 5826 5830 5834 5837 5840 5842 5845 5847 5849 5851 5853 5854 5855 5857 5858 5858 5859 5860 5860 5861 5861
5628 5634 5639 5644 5651 5657 5665 5673 5682 5691 5698 5707 5716 5724 5733 5741 5749 5757 5764 5771 5778 5785 5791 5797 5802 5806 5811 5816 5820 5824 5828 5831 5834 5837 5840 5842 5844 5846 5848 5849 5851 5852 5853 5854 5855 5855 5856 5856 5856
5626 5631 5636 5642 5647 5653 5661 5669 5677 5683 5692 5701 5709 5718 5726 5735 5743 5750 5758 5764 5770 5777 5784 5789 5795 5800 5805 5809 5814 5818 5822 5826 5829 5831 5834 5837 5839 5841 5843 5844 5846 5847 5848 5849 5850 5850 5851 5851 5851
5624 5629 5633 5640 5644 5649 5656 5664 5671 5678 5686 5694 5703 5711 5720 5728 5736 5744 5751 5758 5765 5770 5777 5782 5788 5794 5798 5803 5807 5811 5815 5819 5823 5826 5829 5831 5833 5835 5837 5839 5840 5841 5842 5843 5844 5845 5845 5845 5845
5623 5627 5631 5636 5641 5646 5652 5659 5666 5673 5680 5688 5696 5705 5713 5721 5729 5737 5744 5751 5758 5764 5770 5775 5781 5787 5791 5796 5800 5804 5809 5813 5816 5819 5822 5825 5827 5829 5831 5832 5834 5835 5836 5837 5838 5838 5839 5839 5839
5622 5626 5630 5634 5638 5643 5648 5655 5661 5668 5674 5682 5690 5698 5707 5716 5723 5730 5737 5743 5749 5756 5763 5769 5774 5779 5784 5789 5793 5798 5802 5806 5810 5812 5815 5818 5820 5822 5824 5826 5827 5828 5829 5830 5831 5831 5832 5832 5832
5621 5625 5628 5631 5635 5640 5645 5651 5656 5663 5669 5677 5685 5693 5702 5710 5717 5724 5731 5736 5742 5748 5755 5761 5767 5772 5777 5782 5787 5791 5795 5798 5802 5805 5807 5810 5813 5815 5817 5819 5820 5821 5822 5823 5824 5824 5825 5825 5825
5621 5623 5626 5629 5633 5637 5642 5648 5653 5658 5664 5671 5679 5687 5695 5704 5711 5718 5724 5730 5736 5742 5748 5754 5759 5764 5769 5774 5778 5782 5786 5790 5793 5797 5801 5803 5805 5807 5809 5811 5813 5814 5815 5816 5816 5817 5817 5817 5817
5620 5622 5625 5628 5631 5635 5639 5644 5650 5654 5660 5667 5674 5682 5689 5697 5704 5711 5717 5723 5729 5735 5741 5746 5750 5756 5761 5765 5770 5774 5778 5783 5787 5790 5792 5795 5797 5799 5801 5803 5804 5806 5807 5808 5808 5808 5809 5809 5809
5620 5622 5624 5627 5629 5633 5636 5641 5647 5650 5656 5663 5669 5675 5682 5689 5696 5703 5709 5715 5721 5726 5732 5737 5743 5748 5753 5757 5762 5766 5770 5774 5777 5780 5783 5786 5788 5790 5792 5794 5796 5797 5798 5799 5799 5800 5800 5800 5800
5620 5622 5624 5625 5627 5631 5634 5638 5643 5647 5652 5658 5663 5669 5675 5682 5688 5695 5701 5707 5712 5718 5724 5729 5735 5740 5744 5749 5753 5756 5761 5765 5768 5771 5774 5776 5779 5781 5783 5784 5786 5787 5788 5789 5790 5790 5791 5791 5791
5620 5622 5624 5624 5626 5629 5632 5634 5640 5643 5647 5652 5657 5662 5668 5674 5680 5687 5693 5699 5705 5711 5716 5721 5726 5731 5735 5740 5744 5748 5752 5755 5758 5761 5764 5767 5770 5772 5774 5776 5777 5778 5779 5780 5781 5781 5781 5781 5781
5620 5621 5623 5624 5625 5627 5629 5632 5637 5639 5642 5646 5651 5656 5661 5667 5673 5679 5685 5691 5696 5701 5707 5712 5717 5722 5727 5731 5735 5739 5742 5746 5749 5752 5755 5758 5760 5763 5765 5766 5768 5769 5770 5771 5771 5772 5771 5771 5771
5620 5621 5622 5623 5623 5625 5626 5629 5633 5634 5637 5641 5645 5649 5654 5660 5666 5671 5677 5682 5687 5692 5698 5703 5708 5713 5718 5722 5726 5729 5733 5736 5739 5742 5745 5748 5750 5753 5755 5756 5758 5759 5760 5760 5761 5761 5761 5761 5761
5620 5620 5621 5621 5621 5622 5624 5626 5629 5630 5632 5636 5639 5643 5647 5651 5657 5663 5668 5673 5678 5683 5689 5694 5699 5703 5708 5712 5716 5720 5723 5727 5730 5733 5736 5738 5741 5743 5745 5746 5748 5749 5750 5750 5751 5751 5751 5750 5750
5619 5620 5619 5619 5620 5621 5621 5625 5625 5626 5628 5630 5633 5636 5639 5643 5648 5654 5659 5664 5669 5674 5679 5684 5689 5694 5698 5702 5706 5710 5713 5717 5720 5723 5725 5728 5730 5732 5734 5736 5737 5738 5739 5740 5741 5741 5740 5740 5739
5618 5618 5618 5618 5619 5618 5619 5624 5621 5622 5623 5625 5627 5629 5631 5635 5640 5645 5651 5656 5661 5665 5670 5675 5679 5684 5688 5692 5696 5700 5703 5707 5710 5712 5715 5717 5719 5721 5723 5725 5726 5727 5729 5729 5730 5730 5730 5729 5729